contact:dominique.lefevre@mio.osupytheas.fr, maurice.libes@osupytheas.fr, didier.mallarino@osupytheas.fr
Project:EMSO http://www.emso-fr.org/EMSO-France
Depth: 2436.0 m
Title:EMSO Ligure Ouest : Data MII capteur AQUADOPP
Date,Latitude,Longitude,X_East,Y_North,Z_Up,Amplitude_X,Amplitude_Y,Amplitude_Z,Batterie,SoundSpeed,Heading,Pitch,Roll,Pressure,TIS,Speed,Direction
, degrees North, degrees East, m.s-1, m.s-1,m.s-1, 1, 1, 1, Volt, m.s-1, degree, degree, degree, dbar, degree_C, m.s-1, degree
2023-01-11T00:04:03,42.805,6.029,0.007,0.005,-0.007,101.0,101.0,100.0,13.3,1505.2,330.6,-0.8,1.8,2471.174,13.28,0.008,54.5
2023-01-11T00:07:03,42.805,6.029,0.02,-0.002,-0.023,100.0,101.0,102.0,13.4,1505.2,322.9,-0.7,1.8,2471.174,13.28,0.02,95.7
2023-01-11T00:10:03,42.805,6.029,0.005,0.0,-0.016,101.0,101.0,101.0,13.4,1505.2,318.5,-0.8,1.8,2471.194,13.28,0.005,90.0
2023-01-11T00:13:03,42.805,6.029,0.014,-0.014,-0.006,103.0,101.0,101.0,13.4,1505.2,335.4,-0.7,1.8,2471.167,13.28,0.019,135.0
2023-01-11T00:16:03,42.805,6.029,0.013,-0.014,-0.021,102.0,100.0,100.0,13.3,1505.2,320.1,-0.7,1.8,2471.14,13.29,0.019,137.1
2023-01-11T00:19:03,42.805,6.029,0.002,0.009,0.0,101.0,102.0,101.0,13.3,1505.2,327.0,-0.7,1.8,2471.15,13.29,0.009,12.5
2023-01-11T00:22:03,42.805,6.029,-0.012,-0.007,-0.016,101.0,101.0,100.0,13.4,1505.2,335.8,-0.8,1.8,2471.135,13.29,0.013,239.7
2023-01-11T00:25:03,42.805,6.029,0.015,0.0,-0.017,101.0,102.0,100.0,13.4,1505.2,322.2,-0.7,1.8,2471.138,13.29,0.015,90.0
2023-01-11T00:28:03,42.805,6.029,0.025,-0.013,-0.004,100.0,101.0,102.0,13.4,1505.2,321.9,-0.8,1.8,2471.134,13.29,0.028,117.5
2023-01-11T00:31:03,42.805,6.029,0.019,0.0,0.0,100.0,100.0,102.0,13.4,1505.2,322.2,-0.8,1.8,2471.103,13.29,0.019,90.0
2023-01-11T00:34:03,42.805,6.029,-0.013,-0.019,-0.024,101.0,101.0,101.0,13.4,1505.2,334.8,-0.8,1.8,2471.075,13.29,0.023,214.4
2023-01-11T00:37:03,42.805,6.029,0.025,-0.022,-0.025,101.0,101.0,100.0,13.3,1505.2,329.9,-0.7,1.8,2471.113,13.29,0.033,131.3
2023-01-11T00:40:03,42.805,6.029,0.006,-0.015,-0.002,101.0,101.0,101.0,13.4,1505.2,337.1,-0.8,1.8,2471.134,13.29,0.016,158.2
2023-01-11T00:43:03,42.805,6.029,0.011,0.004,-0.025,100.0,101.0,101.0,13.4,1505.2,318.6,-0.8,1.8,2471.11,13.29,0.011,70.0
2023-01-11T00:46:03,42.805,6.029,-0.002,0.019,0.014,102.0,101.0,100.0,13.4,1505.2,322.4,-0.8,1.8,2471.1,13.29,0.019,354.0
2023-01-11T00:49:03,42.805,6.029,0.005,0.003,-0.01,101.0,102.0,100.0,13.4,1505.2,327.9,-0.8,1.8,2471.111,13.29,0.005,59.0
2023-01-11T00:52:03,42.805,6.029,0.018,-0.016,-0.007,101.0,101.0,100.0,13.4,1505.2,333.0,-0.8,1.8,2471.117,13.29,0.024,131.6
2023-01-11T00:55:03,42.805,6.029,0.005,-0.006,-0.017,101.0,101.0,102.0,13.4,1505.2,322.3,-0.8,1.8,2471.131,13.29,0.007,140.2
2023-01-11T00:58:03,42.805,6.029,0.033,-0.026,-0.016,101.0,102.0,100.0,13.4,1505.2,323.7,-0.8,1.8,2471.103,13.29,0.042,128.2
2023-01-11T01:04:03,42.805,6.029,-0.001,0.0,0.021,103.0,103.0,102.0,13.4,1505.2,330.1,-0.8,1.8,2471.197,13.28,0.001,270.0
2023-01-11T01:07:03,42.805,6.029,0.013,-0.006,-0.005,103.0,102.0,102.0,13.4,1505.2,331.0,-0.7,1.8,2471.134,13.28,0.014,114.8
2023-01-11T01:10:03,42.805,6.029,0.018,0.002,0.022,102.0,102.0,101.0,13.4,1505.2,326.1,-0.8,1.8,2471.125,13.28,0.018,83.7
2023-01-11T01:13:03,42.805,6.029,0.009,-0.01,-0.012,101.0,101.0,101.0,13.3,1505.2,328.7,-0.8,1.8,2471.119,13.28,0.013,138.0
2023-01-11T01:16:03,42.805,6.029,0.03,-0.003,0.019,101.0,102.0,101.0,13.4,1505.2,331.8,-0.8,1.8,2471.158,13.29,0.03,95.7
2023-01-11T01:19:03,42.805,6.029,0.007,-0.014,-0.002,101.0,101.0,101.0,13.4,1505.2,316.0,-0.7,1.8,2471.083,13.29,0.015,153.4
2023-01-11T01:22:03,42.805,6.029,0.013,-0.013,-0.021,101.0,101.0,101.0,13.4,1505.2,321.2,-0.8,1.9,2471.121,13.29,0.018,135.0
2023-01-11T01:25:03,42.805,6.029,0.031,-0.015,-0.014,101.0,101.0,101.0,13.4,1505.2,339.1,-0.7,1.8,2471.107,13.29,0.034,115.8
2023-01-11T01:28:03,42.805,6.029,0.002,-0.003,-0.015,102.0,102.0,101.0,13.3,1505.2,319.5,-0.8,1.8,2471.132,13.29,0.003,146.3
2023-01-11T01:31:03,42.805,6.029,0.017,0.005,0.023,102.0,102.0,102.0,13.4,1505.2,330.8,-0.8,1.8,2471.149,13.29,0.017,73.6
2023-01-11T01:34:03,42.805,6.029,0.008,-0.015,-0.005,101.0,102.0,101.0,13.4,1505.2,321.0,-0.8,1.8,2471.134,13.29,0.017,151.9
2023-01-11T01:37:03,42.805,6.029,0.004,-0.005,-0.02,101.0,102.0,101.0,13.4,1505.2,328.1,-0.8,1.8,2471.097,13.29,0.006,141.3
2023-01-11T01:40:03,42.805,6.029,0.002,-0.013,-0.024,101.0,102.0,101.0,13.4,1505.2,327.0,-0.8,1.8,2471.115,13.29,0.013,171.3
2023-01-11T01:43:03,42.805,6.029,0.022,-0.017,0.001,101.0,102.0,101.0,13.3,1505.2,327.5,-0.7,1.8,2471.068,13.29,0.027,127.7
2023-01-11T01:46:03,42.805,6.029,0.012,-0.021,0.0,102.0,101.0,101.0,13.3,1505.2,327.3,-0.8,1.8,2471.129,13.29,0.024,150.3
2023-01-11T01:49:03,42.805,6.029,0.024,-0.013,-0.018,102.0,101.0,101.0,13.4,1505.2,320.4,-0.8,1.8,2471.125,13.29,0.027,118.4
2023-01-11T01:52:03,42.805,6.029,0.019,-0.003,-0.008,102.0,101.0,101.0,13.4,1505.2,333.8,-0.8,1.8,2471.103,13.29,0.019,99.0
2023-01-11T01:55:03,42.805,6.029,0.015,-0.042,-0.061,101.0,100.0,101.0,13.3,1505.2,324.5,-0.8,1.8,2471.109,13.29,0.044,160.4
2023-01-11T01:58:03,42.805,6.029,0.002,-0.006,-0.051,101.0,101.0,101.0,13.3,1505.2,322.0,-0.7,1.8,2471.116,13.29,0.006,161.6
2023-01-11T02:04:03,42.805,6.029,-0.007,0.0,-0.017,104.0,101.0,100.0,13.4,1505.2,331.2,-0.8,1.8,2471.103,13.28,0.007,270.0
2023-01-11T02:07:03,42.805,6.029,0.02,-0.022,-0.024,102.0,102.0,101.0,13.4,1505.2,336.2,-0.7,1.8,2471.137,13.28,0.029,137.7
2023-01-11T02:10:03,42.805,6.029,0.003,-0.01,-0.024,101.0,101.0,101.0,13.4,1505.2,320.4,-0.7,1.8,2471.131,13.28,0.01,163.3
2023-01-11T02:13:03,42.805,6.029,0.009,-0.014,-0.02,100.0,101.0,101.0,13.3,1505.2,319.4,-0.8,1.8,2471.114,13.29,0.016,147.3
2023-01-11T02:16:03,42.805,6.029,0.03,-0.017,-0.008,101.0,101.0,100.0,13.4,1505.2,331.4,-0.8,1.8,2471.161,13.29,0.034,119.5
2023-01-11T02:19:03,42.805,6.029,0.0,-0.021,-0.025,100.0,101.0,101.0,13.4,1505.2,327.0,-0.8,1.8,2471.109,13.29,0.021,180.0
2023-01-11T02:22:03,42.805,6.029,0.012,0.001,-0.003,101.0,102.0,101.0,13.4,1505.2,316.0,-0.8,1.8,2471.057,13.29,0.012,85.2
2023-01-11T02:25:03,42.805,6.029,0.036,-0.006,0.0,101.0,101.0,101.0,13.4,1505.2,333.0,-0.8,1.8,2471.11,13.29,0.036,99.5
2023-01-11T02:28:03,42.805,6.029,0.027,-0.023,-0.021,101.0,101.0,101.0,13.3,1505.2,329.4,-0.8,1.8,2471.123,13.29,0.035,130.4
2023-01-11T02:31:03,42.805,6.029,0.015,-0.031,-0.024,102.0,101.0,101.0,13.4,1505.2,319.1,-0.7,1.8,2471.075,13.29,0.034,154.2
2023-01-11T02:34:03,42.805,6.029,-0.015,-0.011,-0.062,101.0,101.0,101.0,13.4,1505.2,329.8,-0.8,1.8,2471.068,13.29,0.018,233.7
2023-01-11T02:37:03,42.805,6.029,0.009,0.016,0.009,101.0,100.0,101.0,13.4,1505.2,330.8,-0.7,1.8,2471.102,13.29,0.018,29.4
2023-01-11T02:40:03,42.805,6.029,0.01,-0.005,-0.014,101.0,101.0,101.0,13.4,1505.2,330.2,-0.8,1.8,2471.083,13.29,0.011,116.6
2023-01-11T02:43:03,42.805,6.029,-0.007,0.006,-0.003,101.0,101.0,101.0,13.4,1505.2,332.6,-0.8,1.8,2471.082,13.29,0.009,310.6
2023-01-11T02:46:03,42.805,6.029,0.02,-0.004,0.024,101.0,100.0,100.0,13.4,1505.2,316.0,-0.8,1.8,2471.091,13.29,0.02,101.3
2023-01-11T02:49:03,42.805,6.029,0.005,-0.012,-0.014,102.0,103.0,101.0,13.4,1505.2,322.0,-0.7,1.8,2471.082,13.29,0.013,157.4
2023-01-11T02:52:03,42.805,6.029,0.032,-0.004,0.022,101.0,101.0,101.0,13.4,1505.2,335.4,-0.7,1.8,2471.071,13.29,0.032,97.1
2023-01-11T02:55:03,42.805,6.029,-0.012,-0.003,-0.042,101.0,100.0,101.0,13.4,1505.2,326.3,-0.8,1.8,2471.03,13.29,0.012,256.0
2023-01-11T02:58:03,42.805,6.029,0.044,-0.032,-0.029,102.0,101.0,101.0,13.3,1505.2,326.5,-0.8,1.8,2471.108,13.29,0.054,126.0
2023-01-11T03:04:03,42.805,6.029,0.012,-0.017,-0.022,103.0,99.0,101.0,13.4,1505.2,331.9,-0.8,1.8,2471.102,13.28,0.02,144.8
2023-01-11T03:07:03,42.805,6.029,0.035,-0.005,0.018,100.0,101.0,100.0,13.4,1505.2,323.5,-0.8,1.8,2471.092,13.28,0.035,98.1
2023-01-11T03:10:03,42.805,6.029,0.0,-0.011,-0.023,100.0,102.0,101.0,13.4,1505.2,327.9,-0.8,1.8,2471.129,13.28,0.011,180.0
2023-01-11T03:13:03,42.805,6.029,0.019,-0.013,-0.019,102.0,101.0,101.0,13.4,1505.2,316.0,-0.8,1.8,2471.094,13.28,0.023,124.4
2023-01-11T03:16:03,42.805,6.029,0.004,-0.014,-0.028,101.0,100.0,101.0,13.4,1505.2,317.5,-0.7,1.8,2471.099,13.29,0.014,164.1
2023-01-11T03:19:03,42.805,6.029,0.014,-0.005,-0.025,102.0,98.0,100.0,13.4,1505.2,318.5,-0.8,1.8,2471.088,13.29,0.014,109.6
2023-01-11T03:22:03,42.805,6.029,0.028,-0.017,0.025,101.0,101.0,101.0,13.4,1505.2,339.3,-0.7,1.8,2471.068,13.29,0.032,121.3
2023-01-11T03:25:03,42.805,6.029,0.007,0.0,0.01,101.0,100.0,100.0,13.4,1505.2,324.6,-0.8,1.8,2471.102,13.29,0.007,90.0
2023-01-11T03:28:03,42.805,6.029,0.018,-0.021,-0.018,101.0,101.0,101.0,13.4,1505.2,335.8,-0.8,1.8,2471.08,13.29,0.027,139.4
2023-01-11T03:31:03,42.805,6.029,-0.01,-0.001,-0.002,100.0,102.0,101.0,13.4,1505.2,330.6,-0.8,1.8,2471.112,13.29,0.01,264.3
2023-01-11T03:34:03,42.805,6.029,0.024,-0.006,-0.022,101.0,102.0,101.0,13.3,1505.2,316.0,-0.7,1.8,2471.096,13.29,0.024,104.0
2023-01-11T03:37:03,42.805,6.029,0.021,-0.002,-0.011,100.0,102.0,100.0,13.3,1505.2,324.1,-0.7,1.8,2471.088,13.29,0.021,95.4
2023-01-11T03:40:03,42.805,6.029,0.023,-0.03,-0.031,102.0,101.0,100.0,13.4,1505.2,336.4,-0.8,1.9,2471.074,13.29,0.037,142.5
2023-01-11T03:43:03,42.805,6.029,0.023,-0.024,-0.032,101.0,102.0,100.0,13.4,1505.2,328.7,-0.7,1.8,2471.069,13.29,0.033,136.2
2023-01-11T03:46:03,42.805,6.029,0.006,-0.004,-0.002,100.0,101.0,101.0,13.4,1505.2,334.2,-0.8,1.8,2471.072,13.29,0.007,123.7
2023-01-11T03:49:03,42.805,6.029,0.0,-0.021,-0.01,101.0,101.0,101.0,13.3,1505.2,318.8,-0.8,1.8,2471.114,13.29,0.021,180.0
2023-01-11T03:52:03,42.805,6.029,0.035,-0.03,-0.034,101.0,101.0,100.0,13.4,1505.2,317.2,-0.8,1.8,2471.09,13.29,0.046,130.6
2023-01-11T03:55:03,42.805,6.029,0.015,-0.03,-0.011,101.0,100.0,100.0,13.4,1505.2,321.4,-0.8,1.8,2471.042,13.29,0.033,153.4
2023-01-11T03:58:03,42.805,6.029,-0.003,-0.003,0.026,101.0,101.0,101.0,13.4,1505.2,331.8,-0.8,1.9,2471.115,13.29,0.004,225.0
2023-01-11T04:04:03,42.805,6.029,0.023,-0.002,-0.017,100.0,101.0,100.0,13.4,1505.2,317.5,-0.8,1.8,2471.142,13.28,0.023,95.0
2023-01-11T04:07:03,42.805,6.029,0.009,-0.014,-0.046,102.0,102.0,100.0,13.4,1505.2,317.2,-0.8,1.8,2471.131,13.28,0.016,147.3
2023-01-11T04:10:03,42.805,6.029,-0.013,0.01,-0.016,102.0,100.0,100.0,13.3,1505.2,321.9,-0.8,1.8,2471.081,13.28,0.016,307.6
2023-01-11T04:13:03,42.805,6.029,0.019,0.008,-0.003,102.0,102.0,100.0,13.4,1505.2,319.7,-0.7,1.8,2471.112,13.29,0.02,67.2
2023-01-11T04:16:03,42.805,6.029,0.017,-0.001,0.007,101.0,100.0,100.0,13.4,1505.2,318.7,-0.8,1.8,2471.139,13.29,0.017,93.4
2023-01-11T04:19:03,42.805,6.029,-0.008,-0.001,-0.024,101.0,102.0,101.0,13.4,1505.2,323.9,-0.7,1.8,2471.122,13.29,0.008,262.9
2023-01-11T04:22:03,42.805,6.029,0.0,0.013,0.023,100.0,100.0,101.0,13.4,1505.2,323.1,-0.8,1.8,2471.092,13.29,0.013,0.0
2023-01-11T04:25:03,42.805,6.029,-0.008,-0.014,-0.042,103.0,99.0,101.0,13.3,1505.2,324.2,-0.8,1.8,2471.089,13.29,0.016,209.7
2023-01-11T04:28:03,42.805,6.029,0.0,-0.013,-0.005,101.0,101.0,102.0,13.3,1505.2,322.0,-0.7,1.8,2471.109,13.29,0.013,180.0
2023-01-11T04:31:03,42.805,6.029,-0.011,-0.011,-0.003,101.0,102.0,101.0,13.4,1505.2,319.6,-0.8,1.8,2471.096,13.29,0.015,225.0
2023-01-11T04:34:03,42.805,6.029,0.014,-0.01,-0.012,101.0,101.0,101.0,13.3,1505.2,336.9,-0.8,1.8,2471.124,13.29,0.017,125.5
2023-01-11T04:37:03,42.805,6.029,0.01,-0.016,-0.018,102.0,100.0,102.0,13.4,1505.2,318.0,-0.7,1.8,2471.066,13.29,0.018,148.0
2023-01-11T04:40:03,42.805,6.029,0.027,-0.012,-0.017,101.0,101.0,101.0,13.4,1505.2,326.0,-0.7,1.8,2471.12,13.29,0.029,114.0
2023-01-11T04:43:03,42.805,6.029,0.02,0.0,-0.004,102.0,101.0,100.0,13.3,1505.2,336.9,-0.8,1.8,2471.098,13.29,0.02,90.0
2023-01-11T04:46:03,42.805,6.029,0.003,-0.031,-0.04,100.0,101.0,100.0,13.3,1505.2,321.4,-0.8,1.8,2471.099,13.29,0.031,174.5
2023-01-11T04:49:03,42.805,6.029,-0.003,0.015,0.018,101.0,104.0,101.0,13.3,1505.2,333.0,-0.7,1.8,2471.116,13.29,0.015,348.7
2023-01-11T04:52:03,42.805,6.029,0.016,0.004,-0.012,102.0,100.0,101.0,13.4,1505.2,332.6,-0.7,1.8,2471.101,13.29,0.016,76.0
2023-01-11T04:55:03,42.805,6.029,0.017,-0.009,-0.026,101.0,102.0,101.0,13.3,1505.2,318.5,-0.8,1.8,2471.129,13.29,0.019,117.9
2023-01-11T04:58:03,42.805,6.029,0.013,-0.031,-0.022,101.0,102.0,101.0,13.4,1505.2,339.3,-0.8,1.8,2471.141,13.29,0.033,157.3
2023-01-11T05:04:03,42.805,6.029,0.002,-0.013,-0.048,101.0,101.0,101.0,13.4,1505.2,327.9,-0.8,1.8,2471.142,13.28,0.013,171.3
2023-01-11T05:07:03,42.805,6.029,-0.006,-0.017,-0.044,102.0,101.0,100.0,13.4,1505.2,322.4,-0.8,1.8,2471.149,13.28,0.018,199.4
2023-01-11T05:10:03,42.805,6.029,0.009,-0.011,-0.014,101.0,101.0,101.0,13.4,1505.2,318.6,-0.8,1.8,2471.199,13.28,0.014,140.7
2023-01-11T05:13:03,42.805,6.029,0.013,-0.019,-0.011,102.0,101.0,102.0,13.4,1505.2,318.1,-0.8,1.8,2471.136,13.29,0.023,145.6
2023-01-11T05:16:03,42.805,6.029,0.029,-0.019,-0.02,103.0,101.0,101.0,13.3,1505.2,332.4,-0.7,1.8,2471.16,13.29,0.034,123.2
2023-01-11T05:19:03,42.805,6.029,-0.016,-0.008,-0.025,101.0,101.0,101.0,13.4,1505.2,321.4,-0.8,1.8,2471.137,13.29,0.017,243.4
2023-01-11T05:22:03,42.805,6.029,0.033,-0.005,0.001,101.0,101.0,101.0,13.4,1505.2,326.9,-0.8,1.8,2471.137,13.29,0.033,98.6
2023-01-11T05:25:03,42.805,6.029,-0.015,0.005,0.011,102.0,101.0,101.0,13.4,1505.2,322.6,-0.7,1.8,2471.142,13.29,0.015,288.4
2023-01-11T05:28:03,42.805,6.029,0.008,-0.016,-0.032,100.0,102.0,101.0,13.3,1505.2,324.5,-0.8,1.8,2471.136,13.29,0.017,153.4
2023-01-11T05:31:03,42.805,6.029,-0.006,-0.004,-0.003,102.0,101.0,100.0,13.4,1505.2,328.9,-0.8,1.8,2471.134,13.29,0.007,236.3
2023-01-11T05:34:03,42.805,6.029,0.01,0.01,0.013,101.0,102.0,101.0,13.4,1505.2,329.8,-0.8,1.8,2471.141,13.29,0.014,45.0
2023-01-11T05:37:03,42.805,6.029,0.004,-0.025,-0.02,101.0,101.0,101.0,13.4,1505.2,332.2,-0.7,1.9,2471.163,13.29,0.025,170.9
2023-01-11T05:40:03,42.805,6.029,0.028,-0.009,-0.008,102.0,102.0,102.0,13.3,1505.2,326.3,-0.8,1.8,2471.136,13.29,0.029,107.8
2023-01-11T05:43:03,42.805,6.029,0.025,-0.01,-0.004,102.0,102.0,101.0,13.4,1505.2,327.7,-0.8,1.8,2471.137,13.29,0.026,111.8
2023-01-11T05:46:03,42.805,6.029,-0.009,0.02,0.012,102.0,102.0,102.0,13.3,1505.2,320.0,-0.8,1.8,2471.143,13.29,0.021,335.8
2023-01-11T05:49:03,42.805,6.029,0.052,-0.036,-0.024,101.0,102.0,101.0,13.3,1505.2,330.9,-0.8,1.8,2471.154,13.29,0.063,124.7
2023-01-11T05:52:03,42.805,6.029,0.002,-0.002,0.002,101.0,101.0,101.0,13.4,1505.2,319.9,-0.7,1.8,2471.171,13.29,0.002,135.0
2023-01-11T05:55:03,42.805,6.029,0.007,0.006,-0.024,101.0,101.0,101.0,13.3,1505.2,321.2,-0.8,1.8,2471.135,13.29,0.009,49.4
2023-01-11T05:58:03,42.805,6.029,0.025,0.0,0.002,102.0,100.0,101.0,13.4,1505.2,316.0,-0.7,1.8,2471.125,13.29,0.025,90.0
2023-01-11T06:04:03,42.805,6.029,0.012,-0.003,-0.01,102.0,102.0,100.0,13.3,1505.2,320.7,-0.7,1.8,2471.207,13.28,0.012,104.0
2023-01-11T06:07:03,42.805,6.029,0.019,0.0,0.009,103.0,100.0,101.0,13.4,1505.2,324.6,-0.8,1.8,2471.207,13.28,0.019,90.0
2023-01-11T06:10:03,42.805,6.029,-0.008,0.024,0.013,102.0,102.0,101.0,13.3,1505.2,323.4,-0.8,1.8,2471.174,13.29,0.025,341.6
2023-01-11T06:13:03,42.805,6.029,0.008,0.009,-0.011,101.0,101.0,101.0,13.3,1505.2,317.0,-0.8,1.8,2471.163,13.29,0.012,41.6
2023-01-11T06:16:03,42.805,6.029,0.021,0.0,-0.01,102.0,101.0,101.0,13.4,1505.2,326.9,-0.8,1.9,2471.181,13.29,0.021,90.0
2023-01-11T06:19:03,42.805,6.029,0.017,0.011,0.018,101.0,102.0,101.0,13.4,1505.2,319.8,-0.7,1.8,2471.205,13.29,0.02,57.1
2023-01-11T06:22:03,42.805,6.029,0.014,-0.007,-0.018,101.0,102.0,101.0,13.4,1505.2,338.8,-0.8,1.8,2471.18,13.29,0.015,116.6
2023-01-11T06:25:03,42.805,6.029,-0.007,-0.009,-0.039,101.0,101.0,100.0,13.3,1505.2,323.9,-0.7,1.8,2471.198,13.29,0.011,217.9
2023-01-11T06:28:03,42.805,6.029,-0.008,-0.006,-0.012,103.0,100.0,101.0,13.4,1505.2,317.2,-0.8,1.8,2471.216,13.29,0.01,233.1
2023-01-11T06:31:03,42.805,6.029,-0.025,-0.005,-0.034,101.0,101.0,101.0,13.3,1505.2,320.7,-0.8,1.8,2471.152,13.29,0.025,258.7
2023-01-11T06:34:03,42.805,6.029,0.035,-0.018,-0.019,101.0,101.0,101.0,13.4,1505.2,331.7,-0.8,1.8,2471.195,13.29,0.039,117.2
2023-01-11T06:37:03,42.805,6.029,0.002,0.0,0.015,102.0,100.0,102.0,13.4,1505.2,326.3,-0.8,1.8,2471.18,13.29,0.002,90.0
2023-01-11T06:40:03,42.805,6.029,0.01,-0.002,-0.009,101.0,101.0,100.0,13.4,1505.2,336.6,-0.8,1.8,2471.163,13.29,0.01,101.3
2023-01-11T06:43:03,42.805,6.029,0.004,0.0,0.003,101.0,101.0,101.0,13.4,1505.2,323.1,-0.8,1.8,2471.188,13.29,0.004,90.0
2023-01-11T06:46:03,42.805,6.029,0.007,0.0,-0.033,102.0,102.0,100.0,13.3,1505.2,335.1,-0.8,1.8,2471.193,13.29,0.007,90.0
2023-01-11T06:49:03,42.805,6.029,0.001,-0.013,-0.024,102.0,102.0,100.0,13.4,1505.2,321.3,-0.8,1.8,2471.196,13.29,0.013,175.6
2023-01-11T06:52:03,42.805,6.029,0.052,-0.031,-0.03,102.0,102.0,100.0,13.4,1505.2,320.9,-0.8,1.8,2471.162,13.29,0.06,120.8
2023-01-11T06:55:03,42.805,6.029,0.004,-0.008,-0.011,100.0,101.0,101.0,13.4,1505.2,330.2,-0.8,1.8,2471.202,13.29,0.008,153.4
2023-01-11T06:58:03,42.805,6.029,0.002,-0.007,0.003,101.0,101.0,101.0,13.4,1505.2,323.9,-0.8,1.8,2471.195,13.29,0.007,164.1
2023-01-11T07:04:03,42.805,6.029,0.023,0.009,-0.006,101.0,101.0,101.0,13.4,1505.2,321.4,-0.7,1.8,2471.224,13.28,0.024,68.6
2023-01-11T07:07:03,42.805,6.029,0.011,0.014,-0.019,101.0,101.0,101.0,13.4,1505.2,334.8,-0.8,1.8,2471.224,13.28,0.017,38.2
2023-01-11T07:10:03,42.805,6.029,0.011,0.0,-0.01,101.0,101.0,101.0,13.4,1505.2,317.0,-0.8,1.8,2471.255,13.28,0.011,90.0
2023-01-11T07:13:03,42.805,6.029,-0.001,0.023,0.028,102.0,101.0,101.0,13.4,1505.2,322.4,-0.8,1.8,2471.238,13.28,0.023,357.5
2023-01-11T07:16:03,42.805,6.029,0.023,-0.028,-0.018,100.0,103.0,101.0,13.3,1505.2,324.7,-0.7,1.8,2471.26,13.29,0.036,140.6
2023-01-11T07:19:03,42.805,6.029,0.046,0.006,-0.002,100.0,102.0,101.0,13.4,1505.2,320.4,-0.7,1.8,2471.233,13.29,0.046,82.6
2023-01-11T07:22:03,42.805,6.029,-0.01,-0.002,-0.028,102.0,101.0,101.0,13.4,1505.2,334.1,-0.7,1.8,2471.207,13.29,0.01,258.7
2023-01-11T07:25:03,42.805,6.029,0.01,-0.005,-0.048,102.0,100.0,100.0,13.4,1505.2,324.9,-0.8,1.8,2471.255,13.29,0.011,116.6
2023-01-11T07:28:03,42.805,6.029,0.004,0.019,0.006,101.0,101.0,101.0,13.4,1505.2,323.2,-0.7,1.8,2471.252,13.29,0.019,11.9
2023-01-11T07:31:03,42.805,6.029,0.008,-0.023,-0.017,101.0,101.0,100.0,13.4,1505.2,339.0,-0.8,1.8,2471.23,13.29,0.024,160.8
2023-01-11T07:34:03,42.805,6.029,0.026,-0.003,0.02,102.0,102.0,101.0,13.4,1505.2,325.1,-0.7,1.8,2471.269,13.29,0.026,96.6
2023-01-11T07:37:03,42.805,6.029,0.006,0.005,-0.009,101.0,102.0,101.0,13.3,1505.2,328.5,-0.7,1.8,2471.231,13.29,0.007,50.2
2023-01-11T07:40:03,42.805,6.029,-0.032,0.046,0.033,103.0,100.0,101.0,13.3,1505.2,320.9,-0.8,1.8,2471.266,13.29,0.056,325.2
2023-01-11T07:43:03,42.805,6.029,0.034,0.012,0.031,101.0,102.0,101.0,13.4,1505.2,319.1,-0.8,1.8,2471.254,13.29,0.036,70.6
2023-01-11T07:46:03,42.805,6.029,-0.005,-0.009,-0.018,101.0,102.0,100.0,13.4,1505.2,317.7,-0.8,1.8,2471.246,13.29,0.01,209.1
2023-01-11T07:49:03,42.805,6.029,0.021,0.0,-0.012,101.0,102.0,100.0,13.4,1505.2,331.4,-0.8,1.8,2471.242,13.29,0.021,90.0
2023-01-11T07:52:03,42.805,6.029,-0.001,-0.009,-0.046,101.0,101.0,101.0,13.4,1505.2,336.3,-0.8,1.8,2471.274,13.29,0.009,186.3
2023-01-11T07:55:03,42.805,6.029,-0.009,-0.01,-0.015,102.0,101.0,100.0,13.4,1505.2,319.0,-0.8,1.8,2471.251,13.29,0.013,222.0
2023-01-11T07:58:03,42.805,6.029,0.008,-0.017,-0.019,102.0,101.0,101.0,13.3,1505.2,327.0,-0.8,1.8,2471.242,13.29,0.018,154.8
2023-01-11T08:04:03,42.805,6.029,0.026,-0.017,-0.036,101.0,102.0,102.0,13.4,1505.2,320.4,-0.8,1.8,2471.318,13.28,0.031,123.2
2023-01-11T08:07:03,42.805,6.029,0.001,0.0,-0.012,102.0,99.0,100.0,13.4,1505.2,319.3,-0.8,1.8,2471.291,13.28,0.001,90.0
2023-01-11T08:10:03,42.805,6.029,0.005,-0.016,-0.023,100.0,102.0,100.0,13.4,1505.2,323.5,-0.8,1.8,2471.282,13.28,0.016,162.6
2023-01-11T08:13:03,42.805,6.029,0.041,-0.016,-0.027,102.0,99.0,102.0,13.3,1505.2,319.8,-0.7,1.8,2471.281,13.28,0.044,111.3
2023-01-11T08:16:03,42.805,6.029,0.019,0.0,-0.019,102.0,103.0,99.0,13.4,1505.2,323.4,-0.8,1.8,2471.298,13.29,0.019,90.0
2023-01-11T08:19:03,42.805,6.029,0.008,0.0,-0.009,102.0,101.0,101.0,13.4,1505.2,333.4,-0.8,1.8,2471.294,13.29,0.008,90.0
2023-01-11T08:22:03,42.805,6.029,-0.005,0.013,-0.019,103.0,102.0,100.0,13.4,1505.2,333.8,-0.8,1.8,2471.288,13.29,0.013,339.0
2023-01-11T08:25:03,42.805,6.029,0.019,-0.006,0.005,102.0,101.0,101.0,13.4,1505.2,332.6,-0.7,1.8,2471.295,13.29,0.019,107.5
2023-01-11T08:28:03,42.805,6.029,-0.003,0.0,-0.007,100.0,102.0,100.0,13.4,1505.2,322.5,-0.7,1.8,2471.312,13.29,0.003,270.0
2023-01-11T08:31:03,42.805,6.029,0.012,0.011,-0.012,101.0,101.0,100.0,13.3,1505.2,325.7,-0.8,1.8,2471.282,13.29,0.016,47.5
2023-01-11T08:34:03,42.805,6.029,0.022,-0.018,-0.036,103.0,99.0,101.0,13.4,1505.2,332.2,-0.8,1.8,2471.277,13.29,0.028,129.3
2023-01-11T08:37:03,42.805,6.029,0.03,-0.012,-0.02,100.0,101.0,101.0,13.4,1505.2,319.0,-0.8,1.8,2471.28,13.29,0.032,111.8
2023-01-11T08:40:03,42.805,6.029,0.003,-0.002,-0.001,102.0,101.0,102.0,13.3,1505.2,329.1,-0.8,1.8,2471.286,13.29,0.003,123.7
2023-01-11T08:43:03,42.805,6.029,0.022,-0.002,-0.006,101.0,101.0,101.0,13.4,1505.2,328.4,-0.8,1.8,2471.279,13.29,0.022,95.2
2023-01-11T08:46:03,42.805,6.029,-0.006,-0.004,-0.018,101.0,102.0,101.0,13.4,1505.2,328.2,-0.7,1.8,2471.316,13.29,0.007,236.3
2023-01-11T08:49:03,42.805,6.029,0.012,-0.005,-0.014,102.0,101.0,101.0,13.4,1505.2,326.5,-0.8,1.8,2471.291,13.29,0.013,112.6
2023-01-11T08:52:03,42.805,6.029,0.018,0.016,0.032,101.0,101.0,101.0,13.4,1505.2,336.5,-0.8,1.8,2471.31,13.29,0.024,48.4
2023-01-11T08:55:03,42.805,6.029,0.02,-0.004,-0.001,102.0,101.0,100.0,13.4,1505.2,332.2,-0.8,1.8,2471.31,13.29,0.02,101.3
2023-01-11T08:58:03,42.805,6.029,0.023,-0.002,0.002,100.0,101.0,100.0,13.3,1505.2,323.1,-0.7,1.8,2471.29,13.29,0.023,95.0
2023-01-11T09:04:03,42.805,6.029,-0.004,0.012,0.009,102.0,101.0,100.0,13.4,1505.2,319.1,-0.8,1.8,2471.342,13.28,0.012,341.6
2023-01-11T09:07:03,42.805,6.029,0.034,-0.008,0.01,102.0,99.0,100.0,13.4,1505.2,325.9,-0.8,1.8,2471.344,13.28,0.034,103.2
2023-01-11T09:10:03,42.805,6.029,0.011,0.01,-0.001,101.0,101.0,101.0,13.4,1505.2,321.8,-0.8,1.8,2471.371,13.28,0.014,47.7
2023-01-11T09:13:03,42.805,6.029,0.024,0.006,-0.008,101.0,100.0,101.0,13.4,1505.2,330.9,-0.8,1.8,2471.352,13.28,0.024,76.0
2023-01-11T09:16:03,42.805,6.029,-0.004,0.015,-0.007,101.0,101.0,99.0,13.4,1505.2,331.6,-0.8,1.8,2471.347,13.29,0.015,345.1
2023-01-11T09:19:03,42.805,6.029,0.028,0.0,-0.002,100.0,102.0,101.0,13.4,1505.2,332.2,-0.7,1.8,2471.34,13.29,0.028,90.0
2023-01-11T09:22:03,42.805,6.029,0.005,0.0,-0.013,100.0,101.0,100.0,13.3,1505.2,324.1,-0.8,1.8,2471.311,13.29,0.005,90.0
2023-01-11T09:25:03,42.805,6.029,0.004,-0.002,-0.009,101.0,101.0,101.0,13.4,1505.2,328.7,-0.8,1.8,2471.351,13.29,0.004,116.6
2023-01-11T09:28:03,42.805,6.029,0.003,-0.01,-0.024,101.0,100.0,100.0,13.4,1505.2,334.2,-0.8,1.8,2471.352,13.29,0.01,163.3
2023-01-11T09:31:03,42.805,6.029,0.024,0.004,0.007,102.0,101.0,100.0,13.3,1505.2,320.9,-0.8,1.8,2471.309,13.29,0.024,80.5
2023-01-11T09:34:03,42.805,6.029,0.012,0.015,0.021,101.0,100.0,101.0,13.4,1505.2,320.9,-0.8,1.8,2471.321,13.29,0.019,38.7
2023-01-11T09:37:03,42.805,6.029,0.024,-0.007,0.005,101.0,99.0,102.0,13.4,1505.2,333.4,-0.8,1.8,2471.333,13.29,0.025,106.3
2023-01-11T09:40:03,42.805,6.029,0.007,0.0,-0.003,101.0,101.0,100.0,13.3,1505.2,322.8,-0.8,1.8,2471.311,13.29,0.007,90.0
2023-01-11T09:43:03,42.805,6.029,0.004,-0.009,-0.023,101.0,101.0,100.0,13.3,1505.2,326.1,-0.8,1.8,2471.344,13.29,0.009,156.0
2023-01-11T09:46:03,42.805,6.029,-0.002,-0.005,-0.04,101.0,101.0,101.0,13.3,1505.2,334.1,-0.8,1.8,2471.338,13.29,0.005,201.8
2023-01-11T09:49:03,42.805,6.029,0.019,-0.007,-0.044,100.0,101.0,100.0,13.4,1505.2,330.2,-0.8,1.8,2471.326,13.29,0.02,110.2
2023-01-11T09:52:03,42.805,6.029,0.051,-0.033,-0.039,101.0,101.0,100.0,13.4,1505.2,325.8,-0.7,1.8,2471.36,13.29,0.06,122.9
2023-01-11T09:55:03,42.805,6.029,0.003,0.012,-0.021,99.0,101.0,101.0,13.3,1505.2,335.8,-0.7,1.8,2471.346,13.29,0.012,14.0
2023-01-11T09:58:03,42.805,6.029,0.018,-0.019,-0.023,100.0,101.0,100.0,13.4,1505.2,336.6,-0.8,1.8,2471.323,13.29,0.026,136.5